Regional Weather Roundup
Issued by NWS

Home | Current Version | Previous Version | Text Only | Print | Product List | Glossary On
Versions: 1 2 3 4 5 6 7 8 9 10 11 12 13 14 15 16 17 18 19 20 21 22 23 24 25 26 27 28 29 30 31 32 33 34 35 36 37 38 39 40 41 42 43 44 45 46 47 48 49 50
000
ASUS43 KDTX 280701
RWRMI
MICHIGAN HOURLY REGIONAL WEATHER ROUNDUP
NATIONAL WEATHER SERVICE DETROIT/PONTIAC MI
300 AM EDT SUN MAY 28 2017

NOTE: "FAIR" INDICATES FEW OR NO CLOUDS BELOW 12,000 FEET WITH NO
SIGNIFICANT WEATHER AND/OR OBSTRUCTION TO VISIBILITY.

MIZ047>049-052>055-059>063-066>070-074>076-081>083-280800-
SOUTHEAST LOWER MICHIGAN

CITY           SKY/WX    TMP DP  RH WIND       PRES   REMARKS
ADRIAN         MOCLDY    59  55  87 CALM      29.85R
ALMA           CLOUDY    57  56  97 SE3       29.86R
ANN ARBOR      CLOUDY    55  54  96 CALM      29.83S
BAD AXE        CLEAR     53  49  87 S5        29.85F
CARO           CLOUDY    55  53  95 CALM      29.84S
DETROIT CITY   CLOUDY    57  52  83 SE5       29.83F
DETROIT        CLOUDY    60  53  77 E3        29.85F
FLINT          CLOUDY    56  54  93 CALM      29.84F
GROSSE ILE     CLOUDY    58  53  84 E6        29.83S
HILLSDALE      CLOUDY    55  52  88 CALM      29.84F
HOWELL         CLOUDY    56  53  91 CALM      29.85R

CITY           SKY/WX    TMP DP  RH WIND       PRES   REMARKS
JACKSON        CLOUDY    58  55  90 CALM      29.85R
LAMBERTVILLE   PTCLDY    56  54  93 CALM      29.83R
LANSING        CLOUDY    59  55  87 W3        29.86R
LAPEER         FAIR      56  54  93 SE5       29.84F
MASON          CLOUDY    57  56  97 CALM      29.86R
MONROE         CLOUDY    59  54  82 E3        29.83R
MT. CLEMENS    CLOUDY    55  55 100 CALM      29.83F
PONTIAC        CLOUDY    57  53  86 CALM      29.83F
PORT HOPE        N/A     58  49  72 S6        29.82F
PORT HURON     CLOUDY    52  50  93 CALM      29.85F FOG
TRI CITIES     CLOUDY    62  58  86 SW5       29.85R
MIDLAND        MOCLDY    57  55  95 CALM      29.84R
TROY           CLOUDY    60  50  71 CALM      29.86S
SAGINAW HB     CLOUDY    61  54  77 S5        29.84R
$$
MIZ043>046-050>051-056>058-064>065-071>073-077>080-280800-
SOUTHWEST LOWER MICHIGAN

CITY           SKY/WX    TMP DP  RH WIND       PRES   REMARKS
BATTLE CREEK   CLOUDY    61  56  83 CALM      29.85R
BENTON HARBOR  CLOUDY    58  55  90 E3        29.81F
BIG RAPIDS     CLOUDY    56  53  90 CALM      29.84S
COLDWATER      CLOUDY    57  56  95 NE3       29.84R
FREMONT        CLOUDY    58  53  81 CALM      29.82F
HOLLAND        CLOUDY    60  54  80 E3        29.83F
GRAND RAPIDS   CLOUDY    59  58  96 CALM      29.83F
IONIA          FAIR      59  57  93 CALM      29.83F
KALAMAZOO      CLOUDY    60  56  86 CALM      29.83S
LUDINGTON      CLOUDY    54  52  94 CALM      29.82S
MARSHALL       CLOUDY    56  56  99 CALM      29.85R FOG
MOUNT PLEASANT MOCLDY    59  56  91 W3        29.84R
MUSKEGON       CLOUDY    60  52  74 CALM      29.82F
SOUTH HAVEN    CLOUDY    60  56  88 E3        29.81F
$$
MIZ016>042-280800-
NORTHERN LOWER MICHIGAN

CITY           SKY/WX    TMP DP  RH WIND       PRES   REMARKS
ALPENA         CLOUDY    56  52  86 CALM      29.84F
BEAVER ISLAND  MOCLDY    54  51  89 W5        29.80S
BELLAIRE       CLOUDY    55  53  92 CALM      29.81F
CADILLAC       CLOUDY    55  54  94 CALM      29.83F
CHARLEVOIX     CLOUDY    57  55  94 SE3       29.82F
FRANKFORT      PTCLDY    57  51  81 CALM      29.81S
GAYLORD        CLOUDY    59  52  77 SE5       29.82F
GRAYLING       CLOUDY    52  50  93 CALM      29.84F
HARBOR SPRINGS PTCLDY    55  55 100 CALM      29.80F
HOUGHTON LAKE  CLOUDY    55  52  89 CALM      29.85R
MANISTEE       CLOUDY    53  51  93 E3        29.82S
OSCODA         CLEAR     49  47  92 W7        29.83F
PELLSTON       PTCLDY    51  49  92 CALM      29.80F
ROGERS CITY    CLOUDY    61  53  75 S12G17    29.82S
TRAVERSE CITY  MOCLDY    58  54  86 CALM      29.79F
$$
MIZ007>008-015-280800-
EASTERN UPPER MICHIGAN

CITY           SKY/WX    TMP DP  RH WIND       PRES   REMARKS
KINROSS        CLOUDY    53  50  89 E6        29.81F
MACKINAC ISLAN PTCLDY    50  50 100 CALM      29.80S
NEWBERRY       CLOUDY    53  52  97 SE3       29.79S
S. S. MARIE    MOCLDY    56  50  80 E5        29.80F
MUNISING         N/A     55  53  93 S5        29.76F
$$
MIZ004>006-011>014-085-280800-
CENTRAL UPPER MICHIGAN

CITY           SKY/WX    TMP DP  RH WIND       PRES   REMARKS
MANISTIQUE     CLOUDY    49  46  89 SE5       29.78F
ESCANABA       LGT RAIN  55  52  89 CALM      29.78S
SAWYER-GWINN   CLOUDY    55  54  94 CALM      29.79S
$$
MIZ001>003-009>011-084-280800-
WESTERN UPPER MICHIGAN

CITY           SKY/WX    TMP DP  RH WIND       PRES   REMARKS
IRON MOUNTAIN  CLOUDY    57  50  77 CALM      29.78S
HOUGHTON       CLOUDY    50  46  86 CALM      29.75F
COPPER HARBOR    N/A     55  51  86 SW8G16    29.74F
IRONWOOD       CLOUDY    59  47  64 SW7       29.78S
$$

ABBREVIATIONS USED IN REMARKS
   TC - TEMPERATURE IN CELSIUS
  WCI - WIND CHILL INDEX
   HX - HEAT INDEX
  VSB - VISIBILITY





USA.gov is the U.S. government's official web portal to all federal, state and local government web resources and services.